Regional Weather Roundup
Issued by NWS

Home | Current Version | Previous Version | Text Only | Print | Product List | Glossary On
Versions: 1 2 3 4 5 6 7 8 9 10 11 12 13 14 15 16 17 18 19 20 21 22 23 24 25 26 27 28 29 30 31 32 33 34 35 36 37 38 39 40 41 42 43 44 45 46 47 48 49 50
000
ASCA42 TJSJ 181810
RWRPR
PUERTO RICO/U.S. VIRGIN ISLANDS HOURLY WEATHER ROUNDUP
NATIONAL WEATHER SERVICE SAN JUAN PR
200 PM AST WED OCT 18 2017

PRZ001>002-007>008-010-181900-
PUERTO RICO

CITY           SKY/WX    TMP DP  RH WIND       PRES   REMARKS
SAN JUAN LMM   MOSUNNY   88  79  74 E16       29.98F HX 102
PONCE          LGT RAIN  77  72  83 VRB3      30.00F
AGUADILLA      PTSUNNY   82  77  83 CALM      29.99F HX  91
$$

VIZ001>002-181900-
U.S. VIRGIN ISLANDS

CITY           SKY/WX    TMP DP  RH WIND       PRES   REMARKS
CHARLOTTE AMA  PTSUNNY   86  72  62 SE15G23   29.98F HAZE    HX  92
CHRISTIANSTED  PTSUNNY   88  77  70 SE10      29.99  HAZE    HX 100
$$

HOURLY WEATHER ROUNDUP FOR THE NEWS MEDIA

CITY           SKY/WX    TMP DP  RH WIND       PRES   REMARKS
NEW YORK       SUNNY     69  46  43 SW9       30.29F
NEWARK         MOSUNNY   73  44  35 VRB3      30.28F
CHICAGO        SUNNY     68  44  42 S21G26    30.09F
HARTFORD       SUNNY     69  46  43 W6        30.22F
BOSTON         MOSUNNY   70  42  36 W8        30.22F
DALLAS         MOSUNNY   76  45  33 S13       30.15F
PHILADELPHIA   SUNNY     69  44  40 SW6       30.31F
LOS ANGELES    MOSUNNY   79  58  48 S3        29.96R
WASHINGTON DC  MOSUNNY   68  41  37 SW8       30.35F


USA.gov is the U.S. government's official web portal to all federal, state and local government web resources and services.